Location: Montreal
(45.5000°N, 73.5833°W)
Time: 02:07:49
(UTC-04:00)

N. Korean satellite - Pass Details

Date: 08 October 2017
Orbit: 459 x 517 km, 97.2° (Epoch: 23 October)

Event Time Altitude Azimuth Distance (km) Brightness Sun altitude
Rises 20:11:17 0° 217° (SW) 2,573 10.6 -20.1°
Reaches altitude 10° 20:15:11 10° 260° (W) 1,681 10.3 -20.7°
Maximum altitude 20:15:49 10° 271° (W) 1,656 10.4 -20.9°
Drops below altitude 10° 20:16:28 10° 281° (W) 1,677 10.5 -21.0°
Sets 20:20:20 0° 324° (NW) 2,548 11.0 -21.6°
